Time,TemperatureF,DewpointF,PressureIn,WindDirection,WindDirectionDegrees,WindSpeedMPH,WindSpeedGustMPH,Humidity,HourlyPrecipIn,Conditions,Clouds,dailyrainin,SoftwareType,DateUTC
2013-05-03 00:07:00,44.8,43.0,29.44,NW,321,5.0,7.0,92,0.02,,,0.36,weatherlink.com 1.10,2013-05-03 05:07:00,
2013-05-03 00:22:00,44.8,43.0,29.44,NW,315,3.0,6.0,92,0.04,,,0.38,weatherlink.com 1.10,2013-05-03 05:22:00,
2013-05-03 00:37:00,44.5,42.0,29.44,North,356,2.0,9.0,92,0.06,,,0.40,weatherlink.com 1.10,2013-05-03 05:37:00,
2013-05-03 00:52:00,44.3,42.0,29.43,NW,309,1.0,7.0,92,0.08,,,0.43,weatherlink.com 1.10,2013-05-03 05:52:00,
2013-05-03 01:07:00,44.0,42.0,29.42,NW,306,8.0,11.0,91,0.10,,,0.46,weatherlink.com 1.10,2013-05-03 06:07:00,
2013-05-03 01:22:00,43.7,42.0,29.42,WNW,298,6.0,12.0,92,0.10,,,0.48,weatherlink.com 1.10,2013-05-03 06:22:00,
2013-05-03 01:37:00,43.5,41.0,29.41,NNW,346,3.0,9.0,92,0.11,,,0.51,weatherlink.com 1.10,2013-05-03 06:37:00,
2013-05-03 01:52:00,43.4,41.0,29.41,WNW,290,4.0,9.0,92,0.13,,,0.56,weatherlink.com 1.10,2013-05-03 06:52:00,
2013-05-03 02:07:00,43.0,41.0,29.41,West,266,5.0,8.0,92,0.13,,,0.59,weatherlink.com 1.10,2013-05-03 07:07:00,
2013-05-03 02:22:00,42.7,41.0,29.40,NW,307,2.0,6.0,92,0.14,,,0.62,weatherlink.com 1.10,2013-05-03 07:22:00,
2013-05-03 02:37:00,42.5,40.0,29.38,NW,308,4.0,10.0,92,0.13,,,0.65,weatherlink.com 1.10,2013-05-03 07:37:00,
2013-05-03 02:52:00,42.7,41.0,29.38,NNW,329,1.0,7.0,93,0.11,,,0.67,weatherlink.com 1.10,2013-05-03 07:52:00,
2013-05-03 03:07:00,42.7,41.0,29.38,NW,316,7.0,7.0,92,0.09,,,0.01,weatherlink.com 1.10,2013-05-03 08:07:00,
2013-05-03 03:22:00,42.7,41.0,29.38,West,273,4.0,8.0,92,0.09,,,0.04,weatherlink.com 1.10,2013-05-03 08:22:00,
2013-05-03 03:37:00,42.8,41.0,29.38,WNW,300,4.0,8.0,92,0.10,,,0.08,weatherlink.com 1.10,2013-05-03 08:37:00,
2013-05-03 03:52:00,42.8,41.0,29.38,WNW,291,3.0,6.0,92,0.11,,,0.11,weatherlink.com 1.10,2013-05-03 08:52:00,
2013-05-03 04:08:00,42.7,41.0,29.38,West,260,5.0,7.0,92,0.12,,,0.13,weatherlink.com 1.10,2013-05-03 09:08:00,
2013-05-03 04:23:00,41.8,40.0,29.37,WNW,295,6.0,9.0,93,0.09,,,0.14,weatherlink.com 1.10,2013-05-03 09:23:00,
2013-05-03 04:38:00,41.4,40.0,29.37,WNW,284,7.0,11.0,93,0.09,,,0.17,weatherlink.com 1.10,2013-05-03 09:38:00,
2013-05-03 04:53:00,41.3,40.0,29.37,West,263,6.0,10.0,93,0.08,,,0.19,weatherlink.com 1.10,2013-05-03 09:53:00,
2013-05-03 05:08:00,41.2,39.0,29.36,West,266,10.0,12.0,93,0.06,,,0.19,weatherlink.com 1.10,2013-05-03 10:08:00,
2013-05-03 05:23:00,41.4,39.0,29.35,WNW,294,9.0,11.0,92,0.05,,,0.19,weatherlink.com 1.10,2013-05-03 10:23:00,
2013-05-03 05:38:00,41.2,39.0,29.35,West,269,3.0,11.0,93,0.02,,,0.20,weatherlink.com 1.10,2013-05-03 10:38:00,
2013-05-03 05:53:00,40.9,39.0,29.36,WNW,283,6.0,12.0,92,0.01,,,0.20,weatherlink.com 1.10,2013-05-03 10:53:00,
2013-05-03 06:08:00,40.6,39.0,29.36,West,280,7.0,11.0,92,0.01,,,0.20,weatherlink.com 1.10,2013-05-03 11:08:00,
2013-05-03 06:23:00,40.2,38.0,29.35,WNW,291,5.0,10.0,93,0.02,,,0.21,weatherlink.com 1.10,2013-05-03 11:23:00,
2013-05-03 06:38:00,40.2,38.0,29.34,NW,304,9.0,11.0,93,0.02,,,0.22,weatherlink.com 1.10,2013-05-03 11:38:00,
2013-05-03 06:54:00,40.1,38.0,29.34,WNW,285,6.0,9.0,93,0.02,,,0.22,weatherlink.com 1.10,2013-05-03 11:54:00,
2013-05-03 07:08:00,40.1,38.0,29.34,WNW,288,5.0,8.0,93,0.03,,,0.23,weatherlink.com 1.10,2013-05-03 12:08:00,
2013-05-03 07:23:00,40.4,39.0,29.32,WNW,285,3.0,9.0,94,0.03,,,0.24,weatherlink.com 1.10,2013-05-03 12:23:00,
2013-05-03 07:38:00,40.9,39.0,29.32,WNW,291,5.0,9.0,94,0.05,,,0.27,weatherlink.com 1.10,2013-05-03 12:38:00,
2013-05-03 07:53:00,41.0,39.0,29.32,NW,312,7.0,10.0,93,0.09,,,0.31,weatherlink.com 1.10,2013-05-03 12:53:00,
2013-05-03 08:08:00,41.2,39.0,29.33,NW,314,3.0,8.0,93,0.12,,,0.35,weatherlink.com 1.10,2013-05-03 13:08:00,
2013-05-03 08:23:00,41.2,39.0,29.33,WNW,287,5.0,7.0,93,0.14,,,0.38,weatherlink.com 1.10,2013-05-03 13:23:00,
2013-05-03 08:38:00,41.4,40.0,29.33,West,274,3.0,8.0,93,0.14,,,0.41,weatherlink.com 1.10,2013-05-03 13:38:00,
2013-05-03 08:53:00,41.1,39.0,29.33,West,273,5.0,10.0,93,0.15,,,0.46,weatherlink.com 1.10,2013-05-03 13:53:00,
2013-05-03 09:08:00,40.8,39.0,29.32,WSW,252,7.0,9.0,94,0.14,,,0.49,weatherlink.com 1.10,2013-05-03 14:08:00,
2013-05-03 09:23:00,40.4,39.0,29.33,WSW,239,7.0,12.0,94,0.14,,,0.52,weatherlink.com 1.10,2013-05-03 14:23:00,
2013-05-03 09:38:00,40.3,39.0,29.33,West,276,6.0,13.0,93,0.13,,,0.55,weatherlink.com 1.10,2013-05-03 14:38:00,
2013-05-03 09:53:00,40.6,39.0,29.32,West,270,5.0,10.0,93,0.11,,,0.57,weatherlink.com 1.10,2013-05-03 14:53:00,
2013-05-03 10:08:00,40.6,39.0,29.31,NW,315,5.0,12.0,93,0.08,,,0.57,weatherlink.com 1.10,2013-05-03 15:08:00,
2013-05-03 10:23:00,40.6,39.0,29.31,WNW,288,7.0,11.0,93,0.04,,,0.57,weatherlink.com 1.10,2013-05-03 15:23:00,
2013-05-03 10:38:00,40.4,39.0,29.31,West,277,2.0,9.0,93,0.05,,,0.60,weatherlink.com 1.10,2013-05-03 15:38:00,
2013-05-03 10:53:00,40.5,39.0,29.30,WNW,285,5.0,8.0,93,0.06,,,0.63,weatherlink.com 1.10,2013-05-03 15:53:00,
2013-05-03 11:08:00,40.9,39.0,29.30,NW,320,5.0,7.0,93,0.08,,,0.65,weatherlink.com 1.10,2013-05-03 16:08:00,
2013-05-03 11:23:00,40.8,39.0,29.30,NW,307,5.0,12.0,92,0.12,,,0.69,weatherlink.com 1.10,2013-05-03 16:23:00,
2013-05-03 11:38:00,40.9,39.0,29.29,NNW,327,7.0,10.0,92,0.16,,,0.77,weatherlink.com 1.10,2013-05-03 16:38:00,
2013-05-03 11:53:00,41.2,39.0,29.29,West,263,3.0,8.0,93,0.15,,,0.78,weatherlink.com 1.10,2013-05-03 16:53:00,
2013-05-03 12:08:00,41.5,39.0,29.29,WNW,298,5.0,6.0,92,0.14,,,0.79,weatherlink.com 1.10,2013-05-03 17:08:00,
2013-05-03 12:23:00,41.7,40.0,29.28,NW,319,4.0,9.0,92,0.11,,,0.80,weatherlink.com 1.10,2013-05-03 17:23:00,
2013-05-03 12:53:00,42.0,40.0,29.26,NW,315,3.0,8.0,92,0.03,,,0.81,weatherlink.com 1.10,2013-05-03 17:53:00,
2013-05-03 13:08:00,42.0,40.0,29.26,WNW,287,3.0,6.0,93,0.05,,,0.84,weatherlink.com 1.10,2013-05-03 18:08:00,
2013-05-03 13:23:00,42.3,41.0,29.25,WNW,294,2.0,7.0,93,0.08,,,0.88,weatherlink.com 1.10,2013-05-03 18:23:00,
2013-05-03 13:38:00,42.7,41.0,29.25,West,277,2.0,5.0,93,0.10,,,0.90,weatherlink.com 1.10,2013-05-03 18:38:00,
2013-05-03 13:54:00,42.8,41.0,29.25,NW,314,2.0,6.0,93,0.13,,,0.94,weatherlink.com 1.10,2013-05-03 18:54:00,
2013-05-03 14:09:00,42.8,41.0,29.25,WNW,287,6.0,7.0,92,0.12,,,0.96,weatherlink.com 1.10,2013-05-03 19:09:00,
2013-05-03 14:24:00,42.7,41.0,29.24,WNW,283,5.0,9.0,93,0.11,,,0.99,weatherlink.com 1.10,2013-05-03 19:24:00,
2013-05-03 14:39:00,43.2,41.0,29.26,West,259,10.0,11.0,93,0.11,,,1.02,weatherlink.com 1.10,2013-05-03 19:39:00,
2013-05-03 14:54:00,42.3,41.0,29.25,West,274,8.0,15.0,93,0.10,,,1.04,weatherlink.com 1.10,2013-05-03 19:54:00,
2013-05-03 15:09:00,42.3,41.0,29.23,West,269,5.0,11.0,93,0.10,,,1.06,weatherlink.com 1.10,2013-05-03 20:09:00,
2013-05-03 15:24:00,42.2,40.0,29.22,West,276,4.0,11.0,92,0.11,,,1.10,weatherlink.com 1.10,2013-05-03 20:24:00,
2013-05-03 15:39:00,42.3,40.0,29.21,WNW,290,2.0,10.0,92,0.09,,,1.11,weatherlink.com 1.10,2013-05-03 20:39:00,
2013-05-03 15:54:00,42.6,41.0,29.22,West,262,3.0,7.0,93,0.08,,,1.12,weatherlink.com 1.10,2013-05-03 20:54:00,
2013-05-03 16:09:00,42.4,41.0,29.21,West,278,6.0,10.0,94,0.11,,,1.17,weatherlink.com 1.10,2013-05-03 21:09:00,
2013-05-03 16:24:00,42.7,41.0,29.21,WNW,294,5.0,9.0,93,0.09,,,1.19,weatherlink.com 1.10,2013-05-03 21:24:00,
2013-05-03 16:39:00,42.9,41.0,29.20,West,276,4.0,9.0,94,0.10,,,1.21,weatherlink.com 1.10,2013-05-03 21:39:00,
2013-05-03 16:54:00,43.0,41.0,29.20,WNW,290,2.0,7.0,93,0.15,,,1.27,weatherlink.com 1.10,2013-05-03 21:54:00,
2013-05-03 17:09:00,42.5,41.0,29.21,West,271,6.0,11.0,94,0.12,,,1.29,weatherlink.com 1.10,2013-05-03 22:09:00,
2013-05-03 17:24:00,42.2,41.0,29.21,WNW,293,6.0,8.0,94,0.18,,,1.37,weatherlink.com 1.10,2013-05-03 22:24:00,
2013-05-03 17:39:00,42.0,40.0,29.20,WNW,284,8.0,11.0,94,0.19,,,1.40,weatherlink.com 1.10,2013-05-03 22:39:00,
2013-05-03 17:54:00,42.5,41.0,29.21,West,278,4.0,11.0,93,0.15,,,1.42,weatherlink.com 1.10,2013-05-03 22:54:00,
2013-05-03 18:09:00,41.9,40.0,29.22,WSW,240,8.0,11.0,93,0.14,,,1.43,weatherlink.com 1.10,2013-05-03 23:09:00,
2013-05-03 18:24:00,41.5,40.0,29.20,WNW,288,4.0,13.0,93,0.14,,,1.51,weatherlink.com 1.10,2013-05-03 23:24:00,
2013-05-03 18:39:00,41.3,40.0,29.21,West,270,4.0,10.0,94,0.18,,,1.58,weatherlink.com 1.10,2013-05-03 23:39:00,
2013-05-03 18:54:00,41.4,40.0,29.20,West,266,3.0,11.0,94,0.22,,,1.64,weatherlink.com 1.10,2013-05-03 23:54:00,
2013-05-03 19:09:00,41.5,40.0,29.20,West,273,3.0,11.0,94,0.23,,,1.66,weatherlink.com 1.10,2013-05-04 00:09:00,
2013-05-03 19:24:00,41.7,40.0,29.20,WNW,285,5.0,10.0,93,0.16,,,1.67,weatherlink.com 1.10,2013-05-04 00:24:00,
2013-05-03 19:39:00,41.6,40.0,29.20,WNW,293,4.0,9.0,93,0.10,,,1.68,weatherlink.com 1.10,2013-05-04 00:39:00,
2013-05-03 19:54:00,41.4,40.0,29.20,West,269,4.0,11.0,94,0.06,,,1.70,weatherlink.com 1.10,2013-05-04 00:54:00,
2013-05-03 20:09:00,41.4,40.0,29.19,WNW,289,7.0,9.0,94,0.06,,,1.72,weatherlink.com 1.10,2013-05-04 01:09:00,
2013-05-03 20:24:00,41.5,40.0,29.20,SW,231,7.0,8.0,94,0.07,,,1.74,weatherlink.com 1.10,2013-05-04 01:24:00,
2013-05-03 20:39:00,41.3,40.0,29.19,WSW,246,5.0,9.0,94,0.08,,,1.76,weatherlink.com 1.10,2013-05-04 01:39:00,
2013-05-03 20:54:00,41.2,40.0,29.19,West,276,4.0,9.0,94,0.06,,,1.76,weatherlink.com 1.10,2013-05-04 01:54:00,
2013-05-03 21:09:00,41.1,40.0,29.20,WNW,293,3.0,9.0,94,0.06,,,1.78,weatherlink.com 1.10,2013-05-04 02:09:00,
2013-05-03 21:24:00,41.1,40.0,29.20,WSW,249,6.0,6.0,94,0.05,,,1.79,weatherlink.com 1.10,2013-05-04 02:24:00,
2013-05-03 21:39:00,41.1,40.0,29.21,WNW,283,3.0,7.0,94,0.05,,,1.81,weatherlink.com 1.10,2013-05-04 02:39:00,
2013-05-03 21:54:00,41.0,39.0,29.21,West,276,2.0,7.0,94,0.04,,,1.81,weatherlink.com 1.10,2013-05-04 02:54:00,
2013-05-03 22:09:00,41.0,39.0,29.21,WSW,252,4.0,7.0,94,0.04,,,1.82,weatherlink.com 1.10,2013-05-04 03:09:00,
2013-05-03 22:24:00,41.1,40.0,29.20,SW,218,5.0,5.0,94,0.04,,,1.84,weatherlink.com 1.10,2013-05-04 03:24:00,
2013-05-03 22:39:00,40.9,39.0,29.21,SSW,210,5.0,7.0,94,0.03,,,1.84,weatherlink.com 1.10,2013-05-04 03:39:00,
2013-05-03 22:54:00,40.9,40.0,29.21,WSW,255,3.0,8.0,95,0.04,,,1.85,weatherlink.com 1.10,2013-05-04 03:54:00,
2013-05-03 23:09:00,40.7,39.0,29.21,SW,222,3.0,7.0,95,0.03,,,1.85,weatherlink.com 1.10,2013-05-04 04:09:00,
2013-05-03 23:24:00,40.6,39.0,29.22,SSW,206,4.0,7.0,95,0.01,,,1.85,weatherlink.com 1.10,2013-05-04 04:24:00,
2013-05-03 23:39:00,40.7,39.0,29.22,West,269,3.0,6.0,95,0.01,,,1.85,weatherlink.com 1.10,2013-05-04 04:39:00,
2013-05-03 23:54:00,40.8,39.0,29.22,West,259,1.0,6.0,94,0.00,,,1.85,weatherlink.com 1.10,2013-05-04 04:54:00,